{"data":{"norad_id":62133,"intl_designator":"2024-222V","name":"STARLINK-32245","alt_names":[],"object_type":"PAYLOAD","status":"ACTIVE","operator":null,"country":"US","launch_date":"2024-11-27","launch_site_code":"AFETR","launch_vehicle":null,"mission":null,"orbit_class":"UNKNOWN","rcs_meters":null,"size_class":null,"mass_kg":null,"dimensions":null,"purposes":["comms"],"wikipedia_slug":null,"has_3d_model":false,"image_url":null,"decayed_at":null,"tle_current":{"epoch":"2026-09-20T23:14:47.427072Z","epoch_age_seconds":141318,"freshness":"FRESH","line1":"1 62133U 24222V   26263.96860448  .00010242  00000+0  38106-3 0  9990","line2":"2 62133  43.0013 113.4098 0000027  97.9859 262.0995 15.27589236102778","mean_motion":15.27589236,"eccentricity":2.7e-6,"inclination_deg":43.0013,"raan_deg":113.4098,"arg_perigee_deg":97.9859,"mean_anomaly_deg":262.0995,"bstar":0.00038106,"rev_number":10277,"period_min":94.266178764826,"perigee_km":483.00291514457,"apogee_km":483.03996540015,"semimajor_km":6861.1584402724,"source":"CELESTRAK","updated_at":"2026-09-22T09:00:49.527733Z"}}}